This demonstration page uses our WeatherBlox Daily Observations layout. Learn more.

Hourly Observations for August 6, 2016

Temp ( °F °C ) Dew Point ( °F °C ) Humidity (%) Winds ( mph kmh ) Pressure ( in mb ) Visibility ( mi km ) Precip ( " mm )
12:15 am 00:15 Cloudy 65 18.5 58 14.7 79 79 Calm 30.06 1018 10 16.09344 0 0
12:35 am 00:35 Cloudy 65 18.4 59 15.1 81 81 NE 3 6 30.06 1018 10 16.09344 0 0
12:55 am 00:55 Cloudy 65 18.5 59 15 80 80 ENE 3 6 30.06 1018 10 16.09344 0 0
1:15 am 01:15 Cloudy 65 18.5 59 15.1 81 81 Calm 30.06 1018 10 16.09344 0 0
1:35 am 01:35 Cloudy 66 18.8 59 15 79 79 Calm 30.06 1018 10 16.09344 0 0
1:55 am 01:55 Cloudy 65 18.6 60 15.5 82 82 Calm 30.06 1018 10 16.09344 0 0
2:15 am 02:15 Cloudy 65 18.3 61 16 87 87 Calm 30.06 1018 10 16.09344 0 0
2:35 am 02:35 Cloudy 65 18.2 61 15.9 87 87 Calm 30.06 1018 10 16.09344 0 0
2:55 am 02:55 Cloudy 65 18.3 60 15.8 85 85 Calm 30.06 1018 10 16.09344 0 0
3:15 am 03:15 Cloudy 65 18.1 61 16 88 88 NE 3 6 30.06 1018 10 16.09344 0 0
3:35 am 03:35 Mostly Cloudy 64 17.8 61 16 89 89 NNE 3 6 30.06 1018 10 16.09344 0 0
3:55 am 03:55 Mostly Cloudy 64 17.8 61 16 89 89 NE 3 6 30.06 1018 10 16.09344 0 0
4:15 am 04:15 Partly Cloudy 64 17.6 61 16 90 90 Calm 30.06 1018 10 16.09344 0 0
4:35 am 04:35 Mostly Cloudy 63 17.3 60 15.8 91 91 Calm 30.06 1018 10 16.09344 0 0
4:55 am 04:55 Cloudy 64 17.6 61 16 90 90 ENE 3 6 30.06 1018 10 16.09344 0 0
5:15 am 05:15 Cloudy 64 17.8 61 16 89 89 Calm 30.06 1018 10 16.09344 0 0
5:35 am 05:35 Cloudy 64 17.8 61 16 89 89 Calm 30.06 1018 10 16.09344 0 0
5:55 am 05:55 Cloudy 64 17.7 61 16.1 90 90 Calm 30.06 1018 10 16.09344 0 0
6:15 am 06:15 Cloudy 64 17.8 61 16.2 90 90 Calm 30.06 1018 10 16.09344 0 0
6:35 am 06:35 Cloudy 64 17.8 61 16.1 90 90 Calm 30.06 1018 10 16.09344 0 0
6:55 am 06:55 Cloudy 64 18 61 16.1 89 89 NE 3 6 30.06 1018 10 16.09344 0 0
7:15 am 07:15 Cloudy 64 18 61 16.1 89 89 NE 3 6 30.06 1018 10 16.09344 0 0
7:35 am 07:35 Cloudy 65 18.1 61 16.1 88 88 ENE 6 9 30.06 1018 10 16.09344 0 0
7:55 am 07:55 Cloudy 65 18.4 61 16.1 87 87 E 6 9 30.06 1018 10 16.09344 0 0
8:15 am 08:15 Cloudy 66 19 61 16 83 83 E 7 11 30.06 1018 10 16.09344 0 0
8:35 am 08:35 Cloudy 66 19 61 16 83 83 ESE 7 11 30.06 1018 10 16.09344 0 0
8:55 am 08:55 Cloudy 67 19.2 61 16 82 82 ESE 7 11 30.06 1018 10 16.09344 0 0
9:15 am 09:15 Cloudy 66 19.1 61 16 82 82 ESE 7 11 30.06 1018 10 16.09344 0 0
9:35 am 09:35 Cloudy 67 19.3 61 16.1 82 82 E 7 11 30.06 1018 10 16.09344 0 0
9:55 am 09:55 Cloudy 67 19.6 61 16.2 81 81 ESE 6 9 30.06 1018 10 16.09344 0 0
10:15 am 10:15 Cloudy with Light Rain 68 20.1 61 16.2 78 78 ESE 7 11 30.06 1018 10 16.09344 0 0
10:35 am 10:35 Cloudy 69 20.4 61 16 76 76 ESE 8 13 30.06 1018 10 16.09344 0 0
10:55 am 10:55 Mostly Cloudy 71 21.4 61 16.1 72 72 ESE 6 9 30.03 1017 10 16.09344 0 0
11:15 am 11:15 Partly Cloudy 72 22.1 61 16.1 69 69 ESE 8 13 30.03 1017 10 16.09344 0 0
11:35 am 11:35 Partly Cloudy 72 22 60 15.6 67 67 E 10 17 30.03 1017 10 16.09344 0 0
11:55 am 11:55 Sunny 72 22.4 59 15.1 63 63 E 10 17 30.03 1017 10 16.09344 0 0
12:15 pm 12:15 Sunny 73 22.7 59 15.1 62 62 E 10 17 30.03 1017 10 16.09344 0 0
12:35 pm 12:35 Partly Cloudy 74 23.1 58 14.7 59 59 ESE 9 15 30.03 1017 10 16.09344 0 0
12:55 pm 12:55 Mostly Cloudy 73 23 59 15.1 61 61 E 10 17 30.03 1017 10 16.09344 0 0
1:15 pm 13:15 Mostly Cloudy 74 23.4 60 15.3 61 61 E 8 13 30.03 1017 10 16.09344 0 0
1:35 pm 13:35 Cloudy 75 23.7 59 15.1 59 59 E 12 19 30.03 1017 10 16.09344 0 0
1:55 pm 13:55 Cloudy 74 23.6 59 15.1 59 59 E 9 15 30 1016 10 16.09344 0 0
2:15 pm 14:15 Cloudy 75 23.7 58 14.5 56 56 E 10 17 30 1016 10 16.09344 0 0
2:35 pm 14:35 Cloudy 74 23.4 58 14.6 58 58 E 9 15 30 1016 10 16.09344 0 0
2:55 pm 14:55 Cloudy 75 23.9 59 15 58 58 ESE 10 17 30 1016 10 16.09344 0 0
3:15 pm 15:15 Cloudy 75 23.8 59 15.2 59 59 E 12 19 30 1016 10 16.09344 0 0
3:35 pm 15:35 Cloudy 75 23.7 59 15.1 59 59 E 8 13 30 1016 10 16.09344 0 0
3:55 pm 15:55 Cloudy 75 24 60 15.4 59 59 E 10 17 29.97 1015 10 16.09344 0 0
4:15 pm 16:15 Cloudy 76 24.2 59 15.2 57 57 E 13 20 29.94 1014 10 16.09344 0 0
4:35 pm 16:35 Cloudy 75 24.1 60 15.5 59 59 E 10 17 29.94 1014 10 16.09344 0 0
4:50 pm 16:50 Cloudy 75 23.8 60 15.3 59 59 E 12 19 29.94 1014 10 16.09344 0 0
5:15 pm 17:15 undefined 74 23.6 60 15.3 60 60 E 13 20 29.97 1015 10 16.09344 0 0
5:35 pm 17:35 Cloudy 75 23.7 60 15.5 60 60 ESE 10 17 29.94 1014 10 16.09344 0 0
5:55 pm 17:55 Cloudy 74 23.6 60 15.4 60 60 E 10 17 29.97 1015 10 16.09344 0 0
6:15 pm 18:15 Cloudy 74 23.2 59 15 60 60 E 10 17 29.97 1015 10 16.09344 0 0
6:35 pm 18:35 Cloudy 73 23 60 15.5 63 63 E 9 15 29.97 1015 10 16.09344 0 0
6:55 pm 18:55 Cloudy 73 22.5 60 15.5 65 65 ENE 9 15 29.97 1015 10 16.09344 0 0
7:15 pm 19:15 Cloudy 72 22.3 60 15.4 65 65 E 8 13 29.97 1015 10 16.09344 0 0
7:35 pm 19:35 Cloudy 71 21.8 60 15.7 68 68 ENE 7 11 29.97 1015 10 16.09344 0 0
7:55 pm 19:55 Cloudy 71 21.5 60 15.8 70 70 ENE 8 13 29.97 1015 10 16.09344 0 0
8:15 pm 20:15 Cloudy 70 21.2 60 15.6 71 71 E 8 13 29.97 1015 10 16.09344 0 0
8:35 pm 20:35 Cloudy 70 21 60 15.5 71 71 E 7 11 29.97 1015 10 16.09344 0 0
8:55 pm 20:55 Cloudy 69 20.8 60 15.5 72 72 E 7 11 29.97 1015 10 16.09344 0 0
9:15 pm 21:15 Cloudy 69 20.6 60 15.5 73 73 E 8 13 29.97 1015 10 16.09344 0 0
9:35 pm 21:35 Cloudy 69 20.5 60 15.6 74 74 E 10 17 29.97 1015 10 16.09344 0 0
9:55 pm 21:55 Cloudy 69 20.3 60 15.7 75 75 E 10 17 29.97 1015 10 16.09344 0 0
10:15 pm 22:15 Cloudy 68 20.2 60 15.7 75 75 E 10 17 30.03 1017 10 16.09344 0 0
10:35 pm 22:35 Cloudy 68 20.1 60 15.8 76 76 E 8 13 30.03 1017 10 16.09344 0 0
10:55 pm 22:55 Cloudy 68 20 61 15.9 77 77 E 12 19 30 1016 10 16.09344 0 0
11:15 pm 23:15 Cloudy 68 19.8 60 15.8 78 78 E 9 15 30.03 1017 10 16.09344 0 0
11:35 pm 23:35 Cloudy 67 19.7 60 15.7 78 78 E 8 13 30.03 1017 10 16.09344 0 0
11:55 pm 23:55 Cloudy 67 19.5 60 15.6 78 78 E 8 13 30 1016 10 16.09344 0 0

Powered by AerisWeather